Home   Weather   Aliso Viejo   Past weeks
Flag for USA

Past Weather in Aliso Viejo, California, USA — Yesterday and Last 2 Weeks

Now
54 °F

Light rain. Fog.


Feels Like: 54 °F
Forecast: 58 / 51 °F
Wind: No wind

Location: John Wayne Airport-Orange County Airport

Current Time: Apr 7, 2020 at 11:31:41 pm

Latest Report: Apr 7, 2020 at 10:53 pm


Visibility: 2 mi

Pressure: 30.04 "Hg

Humidity: 83%

Dew Point: 49 °F

Location of Aliso ViejoLocation

Past Weather in Aliso Viejo — Graph

°F

Aliso Viejo Temperature Yesterday

Maximum temperature yesterday: 63 °F (at 1:53 pm)
Minimum temperature yesterday: 58 °F (at 12:06 am)
Average temperature yesterday: 60 °F

High & Low Weather Summary for the Past Weeks

 TemperatureHumidityPressure
High75 °F (Mar 31, 1:53 pm)84% (Apr 5, 11:33 pm)30.25 "Hg (Apr 5, 11:33 pm)
Low50 °F (Mar 27, 6:53 am)28% (Mar 27, 1:53 pm)29.83 "Hg (Apr 1, 4:53 am)
Average61 °F64%30.01 "Hg
* Reported Mar 23 9:53 pm — Apr 7 9:53 pm, Aliso Viejo. Weather by CustomWeather, © 2020

Note: Actual official high and low records may vary slightly from our data, if they occured in-between our weather recording intervals... More about our weather records

Aliso Viejo Weather History for the Previous 24 Hours

Scroll right to see more
 ConditionsComfort  
Time TempWeatherWind HumidityBarometerVisibility
9:53 pm
Tue, Apr 7
55 °FLight rain. Fog.No wind80%30.03 "Hg5 mi
9:31 pm55 °FRain. Fog.5 mph80%30.03 "Hg4 mi
9:14 pm55 °FRain. Fog.3 mph80%30.02 "Hg2 mi
8:53 pm56 °FLight rain. Mostly cloudy.6 mph77%30.01 "Hg7 mi
8:13 pm56 °FOvercast.5 mph77%29.99 "Hg8 mi
7:53 pm56 °FLight rain. Fog.8 mph77%29.97 "Hg5 mi
7:18 pm56 °FLight rain. Fog.12 mph77%29.96 "Hg4 mi
6:36 pm57 °FRain. Fog.17 mph81%29.94 "Hg4 mi
6:16 pm62 °FLight rain. Mostly cloudy.17 mph75%29.91 "Hg8 mi
5:53 pm62 °FBroken clouds.13 mph78%29.90 "Hg7 mi
4:53 pm60 °FLight rain. Fog.5 mph78%29.92 "Hg6 mi
3:53 pm60 °FLight rain. Fog.6 mph78%29.95 "Hg4 mi
3:34 pm60 °FLight rain. Fog.No wind72%29.96 "Hg4 mi
3:23 pm60 °FLight rain. Fog.No wind72%29.97 "Hg6 mi
2:53 pm60 °FLight rain. Fog.3 mph75%29.98 "Hg5 mi
2:32 pm60 °FLight rain. Fog.5 mph72%30.00 "Hg3 mi
2:17 pm63 °FLight rain. Low clouds.7 mph63%29.99 "Hg8 mi
1:53 pm64 °FMostly cloudy.6 mph68%30.00 "Hg10 mi
12:53 pm61 °FLight rain. Overcast.No wind67%30.03 "Hg5 mi
11:53 am63 °FLight rain. Overcast.No wind60%30.04 "Hg9 mi
10:53 am63 °FOvercast.No wind58%30.05 "Hg10 mi
9:53 am62 °FOvercast.3 mph62%30.06 "Hg10 mi
8:53 am60 °FPartly sunny.5 mph75%30.05 "Hg10 mi
7:53 am58 °FPartly sunny.3 mph78%30.05 "Hg10 mi
6:53 am58 °FLight rain. Partly sunny.No wind75%30.03 "Hg10 mi
5:53 am58 °FOvercast.No wind78%30.02 "Hg10 mi
4:53 am57 °FOvercast.No wind81%30.01 "Hg10 mi
3:53 am57 °FLight rain. Mostly cloudy.3 mph81%30.01 "Hg10 mi
2:53 am58 °FOvercast.3 mph78%30.02 "Hg10 mi
1:53 am57 °FMostly cloudy.No wind78%30.03 "Hg10 mi
12:53 am58 °FLight rain. Overcast.No wind81%30.04 "Hg8 mi
11:53 pm
Mon, Apr 6
58 °FOvercast.5 mph78%30.03 "Hg10 mi
11:37 pm58 °FMostly cloudy.3 mph81%30.03 "Hg10 mi
Weather by CustomWeather, © 2020

See weather overview

Advertising